• In Latvia
  • List of Countries
  • For 7 days
  • Water Temperature
  • Satellite Maps
  • Weather Map
  • Weather Widgets
  • user-avatar
    Login

    Hourly Weather Jizzax

    Today, 21 November, Tuesday

    Time Temperature Precipitation Wind Pressure Humidity
    00:00 +8°C° 0 mm 1 mps 733 mmHg 32%
    01:00 +8°C° 0 mm 1 mps 733 mmHg 32%
    02:00 +8°C° 0 mm 1 mps 733 mmHg 32%
    03:00 +8°C° 0 mm 1 mps 733 mmHg 31%
    04:00 +7°C° 0 mm 1 mps 732 mmHg 30%
    05:00 +7°C° 0 mm 1 mps 732 mmHg 29%
    06:00 +7°C° 0 mm 1 mps 732 mmHg 28%
    07:00 +7°C° 0 mm 1 mps 732 mmHg 26%
    08:00 +8°C° 0 mm 1 mps 732 mmHg 24%
    09:00 +11°C° 0 mm 1 mps 732 mmHg 20%
    10:00 +13°C° 0 mm 2 mps 732 mmHg 16%
    11:00 +17°C° 0 mm 2 mps 732 mmHg 11%
    12:00 +18°C° 0 mm 3 mps 732 mmHg 10%
    13:00 +19°C° 0 mm 3 mps 732 mmHg 9%
    14:00 +20°C° 0 mm 3 mps 731 mmHg 8%
    15:00 +18°C° 0 mm 3 mps 731 mmHg 10%
    16:00 +17°C° 0 mm 2 mps 731 mmHg 11%
    17:00 +15°C° 0 mm 2 mps 731 mmHg 13%
    18:00 +14°C° 0 mm 2 mps 731 mmHg 14%
    19:00 +13°C° 0 mm 2 mps 731 mmHg 14%
    20:00 +12°C° 0 mm 2 mps 731 mmHg 15%
    21:00 +12°C° 0 mm 2 mps 730 mmHg 15%
    22:00 +10°C° 0 mm 2 mps 730 mmHg 15%
    23:00 +10°C° 0 mm 2 mps 730 mmHg 15%

    Tomorrow, 22 November, Wednesday

    Time Temperature Precipitation Wind Pressure Humidity
    00:00 +9°C° 0 mm 2 mps 729 mmHg 15%
    01:00 +10°C° 0 mm 1 mps 729 mmHg 14%
    02:00 +10°C° 0 mm 1 mps 729 mmHg 14%
    03:00 +8°C° 0 mm 2 mps 729 mmHg 14%
    04:00 +8°C° 0 mm 2 mps 729 mmHg 14%
    05:00 +8°C° 0 mm 2 mps 728 mmHg 14%
    06:00 +8°C° 0 mm 2 mps 728 mmHg 13%
    07:00 +9°C° 0 mm 2 mps 728 mmHg 13%
    08:00 +9°C° 0 mm 2 mps 729 mmHg 12%
    09:00 +13°C° 0 mm 2 mps 729 mmHg 10%
    10:00 +16°C° 0 mm 3 mps 729 mmHg 8%
    11:00 +19°C° 0 mm 3 mps 729 mmHg 6%
    12:00 +20°C° 0 mm 4 mps 728 mmHg 6%
    13:00 +21°C° 0 mm 4 mps 728 mmHg 5%
    14:00 +22°C° 0 mm 4 mps 728 mmHg 5%
    15:00 +20°C° 0 mm 4 mps 727 mmHg 6%
    16:00 +19°C° 0 mm 3 mps 727 mmHg 7%
    17:00 +17°C° 0 mm 3 mps 727 mmHg 8%
    18:00 +15°C° 0 mm 2 mps 727 mmHg 9%
    19:00 +14°C° 0 mm 2 mps 727 mmHg 9%
    20:00 +13°C° 0 mm 2 mps 727 mmHg 10%
    21:00 +13°C° 0 mm 1 mps 727 mmHg 10%
    22:00 +12°C° 0 mm 1 mps 727 mmHg 10%
    23:00 +12°C° 0 mm 1 mps 726 mmHg 10%

    Day after tomorrow, 23 November, Thursday

    Time Temperature Precipitation Wind Pressure Humidity
    00:00 +12°C° 0 mm 1 mps 726 mmHg 10%
    01:00 +12°C° 0 mm 2 mps 726 mmHg 10%
    02:00 +12°C° 0 mm 2 mps 726 mmHg 10%
    03:00 +12°C° 0 mm 2 mps 726 mmHg 10%
    04:00 +12°C° 0 mm 2 mps 726 mmHg 10%
    05:00 +12°C° 0 mm 2 mps 726 mmHg 11%
    06:00 +12°C° 0 mm 2 mps 726 mmHg 10%
    07:00 +13°C° 0 mm 2 mps 726 mmHg 9%
    08:00 +13°C° 0 mm 2 mps 727 mmHg 8%
    09:00 +16°C° 0 mm 2 mps 727 mmHg 7%
    10:00 +19°C° 0 mm 2 mps 727 mmHg 6%
    11:00 +21°C° 0 mm 2 mps 728 mmHg 5%
    12:00 +23°C° 0 mm 2 mps 728 mmHg 5%
    13:00 +24°C° 0 mm 2 mps 727 mmHg 6%
    14:00 +25°C° 0 mm 2 mps 727 mmHg 7%
    15:00 +23°C° 0 mm 2 mps 727 mmHg 8%
    16:00 +22°C° 0 mm 1 mps 727 mmHg 10%
    17:00 +20°C° 0 mm 1 mps 727 mmHg 11%
    18:00 +20°C° 0 mm 1 mps 727 mmHg 11%
    19:00 +18°C° 0 mm 2 mps 727 mmHg 11%
    20:00 +17°C° 0 mm 2 mps 727 mmHg 11%
    21:00 +17°C° 0 mm 2 mps 727 mmHg 11%
    22:00 +16°C° 0 mm 2 mps 727 mmHg 12%
    23:00 +15°C° 0 mm 2 mps 727 mmHg 12%

    24 November, Friday

    Time Temperature Precipitation Wind Pressure Humidity
    00:00 +15°C° 0 mm 2 mps 727 mmHg 12%
    01:00 +15°C° 0 mm 2 mps 727 mmHg 12%
    02:00 +15°C° 0 mm 2 mps 727 mmHg 12%
    03:00 +14°C° 0 mm 2 mps 727 mmHg 11%
    04:00 +14°C° 0 mm 2 mps 727 mmHg 11%
    05:00 +14°C° 0 mm 2 mps 727 mmHg 11%
    06:00 +14°C° 0 mm 2 mps 727 mmHg 11%
    07:00 +14°C° 0 mm 2 mps 728 mmHg 11%
    08:00 +14°C° 0 mm 2 mps 728 mmHg 10%
    09:00 +17°C° 0 mm 2 mps 728 mmHg 9%
    10:00 +19°C° 0 mm 2 mps 729 mmHg 8%
    11:00 +22°C° 0 mm 3 mps 729 mmHg 6%
    12:00 +22°C° 0 mm 3 mps 729 mmHg 8%
    13:00 +21°C° 0 mm 4 mps 729 mmHg 10%
    14:00 +21°C° 0 mm 5 mps 729 mmHg 12%
    15:00 +20°C° 0 mm 4 mps 729 mmHg 16%
    16:00 +18°C° 0 mm 3 mps 730 mmHg 21%
    17:00 +17°C° 0 mm 2 mps 730 mmHg 25%
    18:00 +16°C° 0 mm 2 mps 730 mmHg 26%
    19:00 +16°C° 0 mm 1 mps 730 mmHg 28%
    20:00 +16°C° 0 mm 1 mps 731 mmHg 29%
    21:00 +15°C° 0 mm 1 mps 730 mmHg 31%
    22:00 +14°C° 0 mm 1 mps 730 mmHg 33%
    23:00 +14°C° 0 mm 1 mps 730 mmHg 35%

    25 November, Saturday

    Time Temperature Precipitation Wind Pressure Humidity
    00:00 +13°C° 0 mm 1 mps 730 mmHg 38%
    01:00 +13°C° 0 mm 1 mps 730 mmHg 40%
    02:00 +13°C° 0 mm 1 mps 730 mmHg 43%
    03:00 +12°C° 0 mm 1 mps 730 mmHg 46%
    04:00 +12°C° 0 mm 1 mps 729 mmHg 49%
    05:00 +11°C° 0 mm 1 mps 729 mmHg 52%
    06:00 +11°C° 0 mm 1 mps 729 mmHg 52%
    07:00 +11°C° 0 mm 1 mps 729 mmHg 52%
    08:00 +11°C° 0 mm 1 mps 729 mmHg 52%
    09:00 +13°C° 0 mm 1 mps 729 mmHg 45%
    10:00 +15°C° 0 mm 1 mps 729 mmHg 37%
    11:00 +18°C° 0 mm 2 mps 729 mmHg 30%
    12:00 +19°C° 0 mm 2 mps 728 mmHg 25%
    13:00 +20°C° 0 mm 3 mps 728 mmHg 21%
    14:00 +21°C° 0 mm 3 mps 727 mmHg 16%
    15:00 +20°C° 0 mm 3 mps 727 mmHg 16%
    16:00 +19°C° 0 mm 2 mps 728 mmHg 16%
    17:00 +18°C° 0 mm 2 mps 728 mmHg 16%
    18:00 +17°C° 0 mm 2 mps 728 mmHg 20%
    19:00 +18°C° 0 mm 1 mps 729 mmHg 24%
    20:00 +16°C° 0 mm 1 mps 729 mmHg 27%
    21:00 +15°C° 0 mm 2 mps 729 mmHg 33%
    22:00 +14°C° 0 mm 2 mps 729 mmHg 38%
    23:00 +14°C° 0 mm 2 mps 730 mmHg 43%

    26 November, Sunday

    Time Temperature Precipitation Wind Pressure Humidity
    00:00 +12°C° 0.1 mm 3 mps 730 mmHg 45%
    01:00 +12°C° 0.1 mm 3 mps 730 mmHg 46%
    02:00 +12°C° 0.1 mm 3 mps 731 mmHg 48%
    03:00 +12°C° 0.1 mm 4 mps 731 mmHg 53%
    04:00 +11°C° 0.1 mm 4 mps 732 mmHg 59%
    05:00 +10°C° 0.1 mm 4 mps 732 mmHg 64%
    06:00 +10°C° 0.1 mm 4 mps 733 mmHg 67%
    07:00 +10°C° 0.1 mm 4 mps 733 mmHg 70%
    08:00 +8°C° 0.1 mm 4 mps 734 mmHg 73%
    09:00 +9°C° 0.1 mm 5 mps 734 mmHg 66%
    10:00 +10°C° 0.1 mm 6 mps 735 mmHg 60%
    11:00 +11°C° 0.1 mm 7 mps 735 mmHg 53%
    12:00 +12°C° 0.1 mm 7 mps 735 mmHg 50%
    13:00 +12°C° 0.1 mm 7 mps 735 mmHg 47%
    14:00 +12°C° 0.1 mm 8 mps 735 mmHg 44%
    15:00 +11°C° 0.2 mm 7 mps 735 mmHg 47%
    16:00 +10°C° 0.2 mm 6 mps 735 mmHg 50%
    17:00 +9°C° 0.2 mm 5 mps 735 mmHg 53%
    18:00 +10°C° 0.2 mm 4 mps 736 mmHg 56%
    19:00 +8°C° 0.2 mm 4 mps 736 mmHg 59%
    20:00 +9°C° 0.2 mm 3 mps 736 mmHg 62%
    21:00 +7°C° 0.1 mm 4 mps 737 mmHg 63%
    22:00 +7°C° 0.1 mm 5 mps 737 mmHg 64%
    23:00 +7°C° 0.1 mm 5 mps 737 mmHg 65%
    Show more